,,,PA_Meas_PMT16A,,PR_Meas_QMR101_102,,RH_Meas_QMH101,,SR_Meas_QMS101,,TA_Meas_QMH101,,GenWind,,GenWind,
date,time,status,PA,status,PR,status,RH,status,SR,status,TA,status,DirAvg,status,SpdAvg,
2011-07-19, 00:00:04,VALID,1001.54,VALID,0,VALID,90.5407,VALID,0,VALID,22.9793,VALID,348,VALID,0.763672,
2011-07-19, 00:01:04,VALID,1001.53,VALID,0,VALID,90.5865,VALID,0,VALID,22.9598,VALID,348,VALID,0.572266,
2011-07-19, 00:02:04,VALID,1001.58,VALID,0,VALID,90.5865,VALID,0,VALID,22.9793,VALID,348,VALID,0.544922,
2011-07-19, 00:03:04,VALID,1001.57,VALID,0,VALID,90.5712,VALID,0,VALID,22.9581,VALID,348,VALID,0.241797,
2011-07-19, 00:04:04,VALID,1001.53,VALID,0,VALID,90.5788,VALID,0,VALID,22.9598,VALID,348,VALID,0,
2011-07-19, 00:05:04,VALID,1001.52,VALID,0,VALID,90.6094,VALID,0,VALID,22.9403,VALID,348,VALID,0.288672,
2011-07-19, 00:06:04,VALID,1001.55,VALID,0,VALID,90.6475,VALID,0,VALID,22.9385,VALID,348,VALID,0.419922,
2011-07-19, 00:07:04,VALID,1001.53,VALID,0,VALID,90.7085,VALID,0,VALID,22.9403,VALID,348,VALID,0.442969,
2011-07-19, 00:08:04,VALID,1001.55,VALID,0,VALID,90.7696,VALID,0,VALID,22.9403,VALID,348,VALID,0.297656,
2011-07-19, 00:09:04,VALID,1001.52,VALID,0,VALID,90.8535,VALID,0,VALID,22.9403,VALID,348,VALID,0.515234,
2011-07-19, 00:10:04,VALID,1001.53,VALID,0,VALID,90.9451,VALID,0,VALID,22.9403,VALID,63,VALID,0.882031,
2011-07-19, 00:11:04,VALID,1001.59,VALID,0,VALID,91.1053,VALID,0,VALID,22.9385,VALID,64,VALID,1.01367,
2011-07-19, 00:12:04,VALID,1001.56,VALID,0,VALID,91.1968,VALID,0,VALID,22.9581,VALID,67,VALID,0.915625,
2011-07-19, 00:13:04,VALID,1001.54,VALID,0,VALID,91.3113,VALID,0,VALID,22.9598,VALID,74,VALID,1.00508,
2011-07-19, 00:14:04,VALID,1001.53,VALID,0,VALID,91.3571,VALID,0,VALID,22.9793,VALID,84,VALID,1.28633,
2011-07-19, 00:15:04,VALID,1001.48,VALID,0,VALID,91.38,VALID,0,VALID,22.9403,VALID,92,VALID,1.34023,
2011-07-19, 00:16:04,VALID,1001.5,VALID,0,VALID,91.4944,VALID,0,VALID,22.9403,VALID,73,VALID,1.08633,
2011-07-19, 00:17:04,VALID,1001.5,VALID,0,VALID,91.5249,VALID,0,VALID,22.88,VALID,71,VALID,1.4582,
2011-07-19, 00:18:04,VALID,1001.48,VALID,0,VALID,91.5478,VALID,0,VALID,22.9013,VALID,68,VALID,1.4668,
2011-07-19, 00:19:04,VALID,1001.48,VALID,0,VALID,91.5707,VALID,0,VALID,22.9013,VALID,72,VALID,0.826563,
2011-07-19, 00:20:04,VALID,1001.49,VALID,0,VALID,91.6088,VALID,0,VALID,22.8818,VALID,70,VALID,0.851172,
2011-07-19, 00:21:04,VALID,1001.5,VALID,0,VALID,91.647,VALID,0,VALID,22.8818,VALID,62,VALID,0.486719,
2011-07-19, 00:22:04,VALID,1001.49,VALID,0,VALID,91.708,VALID,0,VALID,22.8818,VALID,62,VALID,0.714844,
2011-07-19, 00:23:04,VALID,1001.45,VALID,0,VALID,91.7767,VALID,0,VALID,22.8623,VALID,63,VALID,0.577734,
2011-07-19, 00:24:04,VALID,1001.45,VALID,0,VALID,91.8072,VALID,0,VALID,22.841,VALID,63,VALID,0.635156,
2011-07-19, 00:25:04,VALID,1001.49,VALID,0,VALID,91.8301,VALID,0,VALID,22.8427,VALID,64,VALID,0.741406,
2011-07-19, 00:26:04,VALID,1001.49,VALID,0,VALID,91.8606,VALID,0,VALID,22.8623,VALID,64,VALID,0.594922,
2011-07-19, 00:27:04,VALID,1001.5,VALID,0,VALID,91.8759,VALID,0,VALID,22.8427,VALID,64,VALID,0.430859,
2011-07-19, 00:28:04,VALID,1001.52,VALID,0,VALID,91.8911,VALID,0,VALID,22.8427,VALID,64,VALID,0.315234,
2011-07-19, 00:29:04,VALID,1001.54,VALID,0,VALID,91.9598,VALID,0,VALID,22.8427,VALID,64,VALID,0.325,
2011-07-19, 00:30:04,VALID,1001.57,VALID,0,VALID,91.9903,VALID,0,VALID,22.8427,VALID,64,VALID,0.322656,
2011-07-19, 00:31:04,VALID,1001.56,VALID,0,VALID,92.0209,VALID,0,VALID,22.8232,VALID,64,VALID,0.348828,
2011-07-19, 00:32:04,VALID,1001.55,VALID,0,VALID,92.0437,VALID,0,VALID,22.8232,VALID,64,VALID,0.171094,
2011-07-19, 00:33:04,VALID,1001.58,VALID,0,VALID,92.059,VALID,0,VALID,22.8232,VALID,64,VALID,0.0328125,
2011-07-19, 00:34:04,VALID,1001.56,VALID,0,VALID,92.0743,VALID,0,VALID,22.8232,VALID,64,VALID,0,
2011-07-19, 00:35:04,VALID,1001.61,VALID,0,VALID,92.0971,VALID,0,VALID,22.8215,VALID,64,VALID,0.220703,
2011-07-19, 00:36:04,VALID,1001.59,VALID,0,VALID,92.0895,VALID,0,VALID,22.8427,VALID,64,VALID,0.198047,
2011-07-19, 00:37:04,VALID,1001.6,VALID,0,VALID,92.0819,VALID,0,VALID,22.8427,VALID,64,VALID,0,
2011-07-19, 00:38:04,VALID,1001.61,VALID,0,VALID,92.0666,VALID,0,VALID,22.8818,VALID,64,VALID,0,
2011-07-19, 00:39:04,VALID,1001.61,VALID,0,VALID,92.0285,VALID,0,VALID,22.8818,VALID,64,VALID,0,
2011-07-19, 00:40:04,VALID,1001.62,VALID,0,VALID,92.0209,VALID,0,VALID,22.8818,VALID,64,VALID,0,
2011-07-19, 00:41:04,VALID,1001.6,VALID,0,VALID,92.0285,VALID,0,VALID,22.8605,VALID,64,VALID,0,
2011-07-19, 00:42:04,VALID,1001.6,VALID,0,VALID,92.0209,VALID,0,VALID,22.9013,VALID,64,VALID,0.197266,
2011-07-19, 00:43:04,VALID,1001.58,VALID,0,VALID,91.998,VALID,0,VALID,22.9013,VALID,64,VALID,0.316016,
2011-07-19, 00:44:04,VALID,1001.57,VALID,0,VALID,92.0056,VALID,0,VALID,22.8995,VALID,133,VALID,0.632422,
2011-07-19, 00:45:04,VALID,1001.54,VALID,0,VALID,91.9598,VALID,0,VALID,22.9208,VALID,133,VALID,0.738281,
2011-07-19, 00:46:04,VALID,1001.55,VALID,0,VALID,91.9064,VALID,0,VALID,22.9598,VALID,134,VALID,0.618359,
2011-07-19, 00:47:04,VALID,1001.53,VALID,0,VALID,91.8377,VALID,0,VALID,22.9988,VALID,142,VALID,0.757422,
2011-07-19, 00:48:04,VALID,1001.52,VALID,0,VALID,91.7004,VALID,0,VALID,23.0183,VALID,140,VALID,0.992578,
2011-07-19, 00:49:04,VALID,1001.49,VALID,0,VALID,91.502,VALID,0,VALID,23.0361,VALID,140,VALID,0.711328,
2011-07-19, 00:50:04,VALID,1001.48,VALID,0,VALID,91.3266,VALID,0,VALID,23.0556,VALID,140,VALID,0.492578,
2011-07-19, 00:51:04,VALID,1001.46,VALID,0,VALID,91.1434,VALID,0,VALID,23.0946,VALID,140,VALID,0.232031,
2011-07-19, 00:52:04,VALID,1001.47,VALID,0,VALID,90.968,VALID,0,VALID,23.1141,VALID,140,VALID,0.218359,
2011-07-19, 00:53:04,VALID,1001.47,VALID,0,VALID,90.8535,VALID,0,VALID,23.1354,VALID,140,VALID,0.210547,
2011-07-19, 00:54:04,VALID,1001.47,VALID,0,VALID,90.762,VALID,0,VALID,23.1549,VALID,140,VALID,0.040625,
2011-07-19, 00:55:04,VALID,1001.49,VALID,0,VALID,90.7009,VALID,0,VALID,23.1549,VALID,140,VALID,0,
2011-07-19, 00:56:04,VALID,1001.46,VALID,0,VALID,90.6323,VALID,0,VALID,23.1354,VALID,140,VALID,0,
2011-07-19, 00:57:04,VALID,1001.45,VALID,0,VALID,90.6017,VALID,0,VALID,23.1354,VALID,140,VALID,0.350781,
2011-07-19, 00:58:04,VALID,1001.43,VALID,0,VALID,90.6246,VALID,0,VALID,23.1549,VALID,140,VALID,0.241406,
2011-07-19, 00:59:04,VALID,1001.4,VALID,0,VALID,90.6551,VALID,0,VALID,23.1744,VALID,140,VALID,0.379297,
2011-07-19, 01:00:04,VALID,1001.4,VALID,0,VALID,90.6323,VALID,0,VALID,23.1762,VALID,140,VALID,0.397266,
2011-07-19, 01:01:04,VALID,1001.37,VALID,0,VALID,90.6628,VALID,0,VALID,23.1957,VALID,121,VALID,0.794922,
2011-07-19, 01:02:04,VALID,1001.37,VALID,0,VALID,90.6551,VALID,0,VALID,23.1939,VALID,103,VALID,0.410937,
2011-07-19, 01:03:04,VALID,1001.31,VALID,0,VALID,90.6933,VALID,0,VALID,23.2347,VALID,103,VALID,0.400781,
2011-07-19, 01:04:04,VALID,1001.31,VALID,0,VALID,90.7391,VALID,0,VALID,23.2542,VALID,103,VALID,0.430078,
2011-07-19, 01:05:04,VALID,1001.3,VALID,0,VALID,90.7543,VALID,0,VALID,23.2329,VALID,79,VALID,0.518359,
2011-07-19, 01:06:04,VALID,1001.3,VALID,0,VALID,90.7696,VALID,0,VALID,23.2542,VALID,360,VALID,0.751562,
2011-07-19, 01:07:04,VALID,1001.29,VALID,0,VALID,90.762,VALID,0,VALID,23.2134,VALID,353,VALID,0.634766,
2011-07-19, 01:08:04,VALID,1001.26,VALID,0,VALID,90.8077,VALID,0,VALID,23.2134,VALID,353,VALID,0.622266,
2011-07-19, 01:09:04,VALID,1001.25,VALID,0,VALID,90.8077,VALID,0,VALID,23.2134,VALID,353,VALID,0.710547,
2011-07-19, 01:10:04,VALID,1001.24,VALID,0,VALID,90.7849,VALID,0,VALID,23.2347,VALID,353,VALID,0.700391,
2011-07-19, 01:11:04,VALID,1001.22,VALID,0,VALID,90.8001,VALID,0,VALID,23.2152,VALID,353,VALID,0.589844,
2011-07-19, 01:12:04,VALID,1001.21,VALID,0,VALID,90.9069,VALID,0,VALID,23.2134,VALID,353,VALID,0.530469,
2011-07-19, 01:13:04,VALID,1001.19,VALID,0,VALID,90.968,VALID,0,VALID,23.2347,VALID,353,VALID,0.486328,
2011-07-19, 01:14:04,VALID,1001.2,VALID,0,VALID,91.029,VALID,0,VALID,23.1939,VALID,353,VALID,0.576172,
2011-07-19, 01:15:04,VALID,1001.18,VALID,0,VALID,91.0366,VALID,0,VALID,23.1744,VALID,353,VALID,0.635938,
2011-07-19, 01:16:04,VALID,1001.15,VALID,0,VALID,91.0977,VALID,0,VALID,23.1744,VALID,16,VALID,0.428516,
2011-07-19, 01:17:04,VALID,1001.14,VALID,0,VALID,91.1663,VALID,0,VALID,23.1744,VALID,16,VALID,0.305078,
2011-07-19, 01:18:04,VALID,1001.12,VALID,0,VALID,91.1968,VALID,0,VALID,23.1549,VALID,16,VALID,0.503906,
2011-07-19, 01:19:04,VALID,1001.12,VALID,0,VALID,91.235,VALID,0,VALID,23.1762,VALID,16,VALID,0.533203,
2011-07-19, 01:20:04,VALID,1001.09,VALID,0,VALID,91.235,VALID,0,VALID,23.1566,VALID,16,VALID,0.348437,
2011-07-19, 01:21:04,VALID,1001.09,VALID,0,VALID,91.2579,VALID,0,VALID,23.1566,VALID,16,VALID,0.349219,
2011-07-19, 01:22:04,VALID,1001.09,VALID,0,VALID,91.2655,VALID,0,VALID,23.1354,VALID,43,VALID,0.378516,
2011-07-19, 01:23:04,VALID,1001.09,VALID,0,VALID,91.3266,VALID,0,VALID,23.1354,VALID,43,VALID,0.341797,
2011-07-19, 01:24:04,VALID,1001.11,VALID,0,VALID,91.3647,VALID,0,VALID,23.1549,VALID,43,VALID,0.487891,
2011-07-19, 01:25:04,VALID,1001.11,VALID,0,VALID,91.3952,VALID,0,VALID,23.1354,VALID,43,VALID,0.557031,
2011-07-19, 01:26:04,VALID,1001.1,VALID,0,VALID,91.3952,VALID,0,VALID,23.1371,VALID,43,VALID,0.587891,
2011-07-19, 01:27:04,VALID,1001.1,VALID,0,VALID,91.4334,VALID,0,VALID,23.1159,VALID,50,VALID,0.626953,
2011-07-19, 01:28:04,VALID,1001.12,VALID,0,VALID,91.4563,VALID,0,VALID,23.1354,VALID,71,VALID,0.651172,
2011-07-19, 01:29:04,VALID,1001.11,VALID,0,VALID,91.4791,VALID,0,VALID,23.1354,VALID,71,VALID,0.748047,
2011-07-19, 01:30:04,VALID,1001.17,VALID,0,VALID,91.5097,VALID,0,VALID,23.1336,VALID,72,VALID,0.744141,
2011-07-19, 01:31:04,VALID,1001.17,VALID,0,VALID,91.5249,VALID,0,VALID,23.1744,VALID,94,VALID,0.428125,
2011-07-19, 01:32:04,VALID,1001.17,VALID,0,VALID,91.5326,VALID,0,VALID,23.1726,VALID,79,VALID,0.391016,
2011-07-19, 01:33:04,VALID,1001.19,VALID,0,VALID,91.5249,VALID,0,VALID,23.1939,VALID,78,VALID,0.452734,
2011-07-19, 01:34:04,VALID,1001.18,VALID,0,VALID,91.5402,VALID,0,VALID,23.1549,VALID,39,VALID,0.665625,
2011-07-19, 01:35:04,VALID,1001.15,VALID,0,VALID,91.5326,VALID,0,VALID,23.1354,VALID,24,VALID,0.492578,
2011-07-19, 01:36:04,VALID,1001.17,VALID,0,VALID,91.5249,VALID,0,VALID,23.1354,VALID,24,VALID,0.617188,
2011-07-19, 01:37:04,VALID,1001.16,VALID,0,VALID,91.5783,VALID,0,VALID,23.1354,VALID,23,VALID,0.870703,
2011-07-19, 01:38:04,VALID,1001.16,VALID,0,VALID,91.6928,VALID,0,VALID,23.1549,VALID,14,VALID,0.866406,
2011-07-19, 01:39:04,VALID,1001.15,VALID,0,VALID,91.7385,VALID,0,VALID,23.1354,VALID,13,VALID,0.865625,
2011-07-19, 01:40:04,VALID,1001.17,VALID,0,VALID,91.7996,VALID,0,VALID,23.1141,VALID,13,VALID,0.970312,
2011-07-19, 01:41:04,VALID,1001.15,VALID,0,VALID,91.7996,VALID,0,VALID,23.0946,VALID,13,VALID,0.710547,
2011-07-19, 01:42:05,VALID,1001.13,VALID,0,VALID,91.8148,VALID,0,VALID,23.0751,VALID,13,VALID,0.393359,
2011-07-19, 01:43:05,VALID,1001.11,VALID,0,VALID,91.8377,VALID,0,VALID,23.0556,VALID,13,VALID,0.335547,
2011-07-19, 01:44:05,VALID,1001.11,VALID,0,VALID,91.8759,VALID,0,VALID,23.0751,VALID,13,VALID,0.383594,
2011-07-19, 01:45:05,VALID,1001.13,VALID,0,VALID,91.8759,VALID,0,VALID,23.0573,VALID,13,VALID,0.481641,
2011-07-19, 01:46:05,VALID,1001.13,VALID,0,VALID,91.8835,VALID,0,VALID,23.0786,VALID,13,VALID,0.495703,
2011-07-19, 01:47:05,VALID,1001.12,VALID,0,VALID,91.9064,VALID,0,VALID,23.0981,VALID,13,VALID,0.528125,
2011-07-19, 01:48:05,VALID,1001.14,VALID,0,VALID,91.9064,VALID,0,VALID,23.0786,VALID,13,VALID,0.39375,
2011-07-19, 01:49:05,VALID,1001.12,VALID,0,VALID,91.9064,VALID,0,VALID,23.0981,VALID,13,VALID,0.366797,
2011-07-19, 01:50:05,VALID,1001.11,VALID,0,VALID,91.9293,VALID,0,VALID,23.0786,VALID,13,VALID,0.272656,
2011-07-19, 01:51:05,VALID,1001.08,VALID,0,VALID,91.9598,VALID,0,VALID,23.1176,VALID,13,VALID,0.264062,
2011-07-19, 01:52:05,VALID,1001.08,VALID,0,VALID,91.9903,VALID,0,VALID,23.0964,VALID,13,VALID,0.046875,
2011-07-19, 01:53:05,VALID,1001.06,VALID,0,VALID,91.9903,VALID,0,VALID,23.1176,VALID,13,VALID,0.196094,
2011-07-19, 01:54:05,VALID,1001.05,VALID,0,VALID,92.0132,VALID,0,VALID,23.1176,VALID,19,VALID,0.330078,
2011-07-19, 01:55:05,VALID,1001.06,VALID,0,VALID,92.0209,VALID,0,VALID,23.0981,VALID,68,VALID,0.485938,
2011-07-19, 01:56:05,VALID,1001.06,VALID,0,VALID,92.0209,VALID,0,VALID,23.0981,VALID,55,VALID,0.736719,
2011-07-19, 01:57:05,VALID,1001.05,VALID,0,VALID,92.0132,VALID,0,VALID,23.0981,VALID,55,VALID,0.748828,
2011-07-19, 01:58:05,VALID,1001.05,VALID,0,VALID,91.998,VALID,0,VALID,23.0981,VALID,55,VALID,0.703516,
2011-07-19, 01:59:05,VALID,1001.05,VALID,0,VALID,92.0209,VALID,0,VALID,23.0786,VALID,55,VALID,0.578516,
2011-07-19, 02:00:05,VALID,1001.02,VALID,0,VALID,92.0285,VALID,0,VALID,23.0786,VALID,55,VALID,0.4875,
2011-07-19, 02:01:05,VALID,1001.03,VALID,0,VALID,92.0132,VALID,0,VALID,23.0591,VALID,55,VALID,0.489062,
2011-07-19, 02:02:05,VALID,1001.01,VALID,0,VALID,92.0285,VALID,0,VALID,23.0591,VALID,55,VALID,0.520312,
2011-07-19, 02:03:05,VALID,1001.03,VALID,0,VALID,92.0132,VALID,0,VALID,23.0786,VALID,54,VALID,0.542578,
2011-07-19, 02:04:05,VALID,1001.03,VALID,0,VALID,92.0132,VALID,0,VALID,23.0786,VALID,54,VALID,0.493359,
2011-07-19, 02:05:05,VALID,1001.02,VALID,0,VALID,91.9674,VALID,0,VALID,23.0981,VALID,54,VALID,0.335547,
2011-07-19, 02:06:05,VALID,1000.99,VALID,0,VALID,91.9369,VALID,0,VALID,23.0786,VALID,54,VALID,0.291406,
2011-07-19, 02:07:05,VALID,1000.97,VALID,0,VALID,91.9522,VALID,0,VALID,23.0786,VALID,32,VALID,0.649219,
2011-07-19, 02:08:05,VALID,1000.96,VALID,0,VALID,91.9369,VALID,0,VALID,23.0786,VALID,31,VALID,0.358984,
2011-07-19, 02:09:05,VALID,1000.97,VALID,0,VALID,91.914,VALID,0,VALID,23.0591,VALID,31,VALID,0.237891,
2011-07-19, 02:10:05,VALID,1000.91,VALID,0,VALID,91.914,VALID,0,VALID,23.0591,VALID,31,VALID,0,
2011-07-19, 02:11:05,VALID,1000.94,VALID,0,VALID,91.9064,VALID,0,VALID,23.0786,VALID,31,VALID,0,
2011-07-19, 02:12:05,VALID,1000.93,VALID,0,VALID,91.8911,VALID,0,VALID,23.0591,VALID,44,VALID,0.339063,
2011-07-19, 02:13:05,VALID,1000.95,VALID,0,VALID,91.8911,VALID,0,VALID,23.0396,VALID,44,VALID,0.0796875,
2011-07-19, 02:14:05,VALID,1000.91,VALID,0,VALID,91.853,VALID,0,VALID,23.0396,VALID,44,VALID,0,
2011-07-19, 02:15:05,VALID,1000.9,VALID,0,VALID,91.853,VALID,0,VALID,23.0591,VALID,44,VALID,0,
2011-07-19, 02:16:05,VALID,1000.92,VALID,0,VALID,91.8301,VALID,0,VALID,23.0769,VALID,44,VALID,0.195313,
2011-07-19, 02:17:05,VALID,1000.9,VALID,0,VALID,91.8377,VALID,0,VALID,23.0769,VALID,44,VALID,0.204297,
2011-07-19, 02:18:05,VALID,1000.92,VALID,0,VALID,91.8225,VALID,0,VALID,23.0964,VALID,44,VALID,0.564453,
2011-07-19, 02:19:05,VALID,1000.89,VALID,0,VALID,91.7996,VALID,0,VALID,23.0769,VALID,51,VALID,0.615234,
2011-07-19, 02:20:05,VALID,1000.9,VALID,0,VALID,91.792,VALID,0,VALID,23.0964,VALID,54,VALID,0.594141,
2011-07-19, 02:21:05,VALID,1000.91,VALID,0,VALID,91.7843,VALID,0,VALID,23.0769,VALID,100,VALID,0.844922,
2011-07-19, 02:22:05,VALID,1000.88,VALID,0,VALID,91.8301,VALID,0,VALID,23.0769,VALID,101,VALID,0.691016,
2011-07-19, 02:23:05,VALID,1000.87,VALID,0,VALID,91.8225,VALID,0,VALID,23.0769,VALID,112,VALID,0.696094,
2011-07-19, 02:24:05,VALID,1000.89,VALID,0,VALID,91.7996,VALID,0,VALID,23.0769,VALID,118,VALID,0.596875,
2011-07-19, 02:25:05,VALID,1000.89,VALID,0,VALID,91.7614,VALID,0,VALID,23.0964,VALID,118,VALID,0.565234,
2011-07-19, 02:26:05,VALID,1000.89,VALID,0,VALID,91.6775,VALID,0,VALID,23.1354,VALID,108,VALID,0.721484,
2011-07-19, 02:27:05,VALID,1000.92,VALID,0,VALID,91.5936,VALID,0,VALID,23.1762,VALID,109,VALID,0.877734,
2011-07-19, 02:28:05,VALID,1000.87,VALID,0,VALID,91.4944,VALID,0,VALID,23.1549,VALID,124,VALID,0.908594,
2011-07-19, 02:29:05,VALID,1000.9,VALID,0,VALID,91.3266,VALID,0,VALID,23.1939,VALID,132,VALID,0.774609,
2011-07-19, 02:30:05,VALID,1000.91,VALID,0,VALID,91.1358,VALID,0,VALID,23.2117,VALID,159,VALID,0.885156,
2011-07-19, 02:31:05,VALID,1000.91,VALID,0,VALID,90.8535,VALID,0,VALID,23.2542,VALID,146,VALID,1.13828,
2011-07-19, 02:32:05,VALID,1000.9,VALID,0,VALID,90.4644,VALID,0,VALID,23.2719,VALID,139,VALID,1.37383,
2011-07-19, 02:33:05,VALID,1000.9,VALID,0,VALID,90.0295,VALID,0,VALID,23.2702,VALID,137,VALID,1.70039,
2011-07-19, 02:34:05,VALID,1000.9,VALID,0,VALID,89.6862,VALID,0,VALID,23.3305,VALID,141,VALID,1.30664,
2011-07-19, 02:35:05,VALID,1000.92,VALID,0,VALID,89.4497,VALID,0,VALID,23.3695,VALID,140,VALID,1.75547,
2011-07-19, 02:36:05,VALID,1000.89,VALID,0,VALID,89.236,VALID,0,VALID,23.389,VALID,137,VALID,2.0332,
2011-07-19, 02:37:05,VALID,1000.9,VALID,0,VALID,89.1368,VALID,0,VALID,23.428,VALID,135,VALID,1.48711,
2011-07-19, 02:38:05,VALID,1000.92,VALID,0,VALID,89.0453,VALID,0,VALID,23.428,VALID,134,VALID,1.55078,
2011-07-19, 02:39:05,VALID,1000.93,VALID,0,VALID,88.9232,VALID,0,VALID,23.4475,VALID,140,VALID,1.22461,
2011-07-19, 02:40:05,VALID,1000.92,VALID,0,VALID,88.8851,VALID,0,VALID,23.4671,VALID,134,VALID,1.24141,
2011-07-19, 02:41:05,VALID,1000.92,VALID,0,VALID,88.8546,VALID,0,VALID,23.4671,VALID,134,VALID,1.11211,
2011-07-19, 02:42:05,VALID,1000.93,VALID,0,VALID,88.8469,VALID,0,VALID,23.4671,VALID,129,VALID,1.1957,
2011-07-19, 02:43:05,VALID,1000.92,VALID,0,VALID,88.7706,VALID,0,VALID,23.4671,VALID,127,VALID,1.81328,
2011-07-19, 02:44:05,VALID,1000.95,VALID,0,VALID,88.6867,VALID,0,VALID,23.4866,VALID,129,VALID,1.35898,
2011-07-19, 02:45:05,VALID,1000.92,VALID,0,VALID,88.5265,VALID,0,VALID,23.5061,VALID,123,VALID,1.61914,
2011-07-19, 02:46:05,VALID,1000.92,VALID,0,VALID,88.4197,VALID,0,VALID,23.5256,VALID,134,VALID,1.45117,
2011-07-19, 02:47:05,VALID,1000.92,VALID,0,VALID,88.29,VALID,0,VALID,23.5451,VALID,136,VALID,1.25781,
2011-07-19, 02:48:05,VALID,1000.95,VALID,0,VALID,88.2823,VALID,0,VALID,23.5646,VALID,135,VALID,1.12539,
2011-07-19, 02:49:05,VALID,1000.92,VALID,0,VALID,88.3434,VALID,0,VALID,23.5433,VALID,134,VALID,0.920313,
2011-07-19, 02:50:05,VALID,1000.92,VALID,0,VALID,88.3281,VALID,0,VALID,23.5646,VALID,136,VALID,0.729688,
2011-07-19, 02:51:05,VALID,1000.91,VALID,0,VALID,88.3663,VALID,0,VALID,23.5451,VALID,143,VALID,0.864062,
2011-07-19, 02:52:05,VALID,1000.92,VALID,0,VALID,88.3663,VALID,0,VALID,23.5433,VALID,120,VALID,0.428516,
2011-07-19, 02:53:05,VALID,1000.92,VALID,0,VALID,88.4273,VALID,0,VALID,23.5451,VALID,122,VALID,0.735156,
2011-07-19, 02:54:05,VALID,1000.92,VALID,0,VALID,88.4807,VALID,0,VALID,23.5451,VALID,114,VALID,0.914453,
2011-07-19, 02:55:05,VALID,1000.9,VALID,0,VALID,88.496,VALID,0,VALID,23.5238,VALID,100,VALID,0.698047,
2011-07-19, 02:56:05,VALID,1000.95,VALID,0,VALID,88.5799,VALID,0.112286,VALID,23.5646,VALID,8,VALID,0.833594,
2011-07-19, 02:57:05,VALID,1000.91,VALID,0,VALID,88.6409,VALID,0.112286,VALID,23.5256,VALID,2,VALID,0.610156,
2011-07-19, 02:58:05,VALID,1000.89,VALID,0,VALID,88.8088,VALID,0,VALID,23.5043,VALID,2,VALID,0.467578,
2011-07-19, 02:59:05,VALID,1000.91,VALID,0,VALID,88.9766,VALID,0.112286,VALID,23.4848,VALID,39,VALID,0.584766,
2011-07-19, 03:00:05,VALID,1000.88,VALID,0,VALID,89.1903,VALID,0,VALID,23.4866,VALID,46,VALID,0.478906,
2011-07-19, 03:01:05,VALID,1000.88,VALID,0,VALID,89.236,VALID,0,VALID,23.4688,VALID,46,VALID,0.336328,
2011-07-19, 03:02:05,VALID,1000.88,VALID,0,VALID,89.32,VALID,0,VALID,23.428,VALID,48,VALID,0.173438,
2011-07-19, 03:03:05,VALID,1000.85,VALID,0,VALID,89.3428,VALID,0,VALID,23.428,VALID,48,VALID,0.1875,
2011-07-19, 03:04:05,VALID,1000.87,VALID,0,VALID,89.4191,VALID,0,VALID,23.4298,VALID,48,VALID,0.205859,
2011-07-19, 03:05:05,VALID,1000.87,VALID,0,VALID,89.4726,VALID,0,VALID,23.389,VALID,48,VALID,0.000390625,
2011-07-19, 03:06:05,VALID,1000.84,VALID,0,VALID,89.5412,VALID,0,VALID,23.3908,VALID,48,VALID,0,
2011-07-19, 03:07:05,VALID,1000.83,VALID,0,VALID,89.587,VALID,0,VALID,23.3908,VALID,48,VALID,0.142969,
2011-07-19, 03:08:05,VALID,1000.83,VALID,0,VALID,89.6404,VALID,0,VALID,23.3713,VALID,48,VALID,0.150781,
2011-07-19, 03:09:05,VALID,1000.85,VALID,0,VALID,89.6786,VALID,0,VALID,23.35,VALID,48,VALID,0,
2011-07-19, 03:10:05,VALID,1000.86,VALID,0,VALID,89.7549,VALID,0,VALID,23.3713,VALID,48,VALID,0,
2011-07-19, 03:11:05,VALID,1000.85,VALID,0,VALID,89.8083,VALID,0,VALID,23.3518,VALID,48,VALID,0.208203,
2011-07-19, 03:12:05,VALID,1000.85,VALID,0,VALID,89.9151,VALID,0,VALID,23.35,VALID,48,VALID,0.0695312,
2011-07-19, 03:13:05,VALID,1000.86,VALID,0,VALID,89.938,VALID,0,VALID,23.35,VALID,48,VALID,0.125781,
2011-07-19, 03:14:05,VALID,1000.86,VALID,0,VALID,89.9227,VALID,0,VALID,23.3713,VALID,48,VALID,0.269531,
2011-07-19, 03:15:05,VALID,1000.87,VALID,0,VALID,89.9685,VALID,0,VALID,23.3908,VALID,48,VALID,0.29375,
2011-07-19, 03:16:05,VALID,1000.87,VALID,0,VALID,89.999,VALID,0,VALID,23.3908,VALID,48,VALID,0.386328,
2011-07-19, 03:17:05,VALID,1000.87,VALID,0,VALID,89.9837,VALID,0,VALID,23.3695,VALID,48,VALID,0.372266,
2011-07-19, 03:18:05,VALID,1000.88,VALID,0,VALID,89.9761,VALID,0,VALID,23.4103,VALID,48,VALID,0.388672,
2011-07-19, 03:19:05,VALID,1000.89,VALID,0,VALID,90.0448,VALID,0,VALID,23.4103,VALID,48,VALID,0.498047,
2011-07-19, 03:20:05,VALID,1000.87,VALID,0,VALID,89.9685,VALID,0,VALID,23.3908,VALID,22,VALID,0.367969,
2011-07-19, 03:21:05,VALID,1000.86,VALID,0,VALID,89.8693,VALID,0,VALID,23.3695,VALID,22,VALID,0.394141,
2011-07-19, 03:22:05,VALID,1000.86,VALID,0,VALID,89.8083,VALID,0,VALID,23.3908,VALID,22,VALID,0.539063,
2011-07-19, 03:23:05,VALID,1000.84,VALID,0,VALID,89.7091,VALID,0,VALID,23.4103,VALID,22,VALID,0.305078,
2011-07-19, 03:24:05,VALID,1000.84,VALID,0,VALID,89.648,VALID,0,VALID,23.4103,VALID,22,VALID,0.416406,
2011-07-19, 03:25:05,VALID,1000.83,VALID,0,VALID,89.6633,VALID,0,VALID,23.4085,VALID,22,VALID,0.261328,
2011-07-19, 03:26:05,VALID,1000.83,VALID,0,VALID,89.6557,VALID,0,VALID,23.4085,VALID,22,VALID,0.00585938,
2011-07-19, 03:27:05,VALID,1000.81,VALID,0,VALID,89.6251,VALID,0,VALID,23.3908,VALID,22,VALID,0,
2011-07-19, 03:28:05,VALID,1000.82,VALID,0,VALID,89.6175,VALID,0,VALID,23.4103,VALID,22,VALID,0,
2011-07-19, 03:29:05,VALID,1000.83,VALID,0,VALID,89.6251,VALID,0,VALID,23.3695,VALID,22,VALID,0.0324219,
2011-07-19, 03:30:05,VALID,1000.81,VALID,0,VALID,89.7014,VALID,0,VALID,23.3695,VALID,22,VALID,0.196875,
2011-07-19, 03:31:05,VALID,1000.79,VALID,0,VALID,89.7777,VALID,0.112286,VALID,23.389,VALID,22,VALID,0.437109,
2011-07-19, 03:32:05,VALID,1000.8,VALID,0,VALID,89.8769,VALID,0,VALID,23.3695,VALID,360,VALID,0.670313,
2011-07-19, 03:33:05,VALID,1000.8,VALID,0,VALID,89.999,VALID,0,VALID,23.3677,VALID,353,VALID,0.586719,
2011-07-19, 03:34:05,VALID,1000.8,VALID,0,VALID,90.144,VALID,0,VALID,23.3695,VALID,353,VALID,0.517969,
2011-07-19, 03:35:05,VALID,1000.78,VALID,0,VALID,90.2737,VALID,0,VALID,23.389,VALID,350,VALID,0.469531,
2011-07-19, 03:36:05,VALID,1000.8,VALID,0,VALID,90.3957,VALID,0,VALID,23.3695,VALID,350,VALID,0.549609,
2011-07-19, 03:37:05,VALID,1000.8,VALID,0,VALID,90.4797,VALID,0,VALID,23.3287,VALID,348,VALID,0.541016,
2011-07-19, 03:38:05,VALID,1000.78,VALID,0,VALID,90.5331,VALID,0,VALID,23.3305,VALID,304,VALID,0.603125,
2011-07-19, 03:39:05,VALID,1000.78,VALID,0,VALID,90.678,VALID,0,VALID,23.3092,VALID,304,VALID,0.688672,
2011-07-19, 03:40:05,VALID,1000.79,VALID,0,VALID,90.7314,VALID,0.112286,VALID,23.2897,VALID,304,VALID,0.688281,
2011-07-19, 03:41:05,VALID,1000.79,VALID,0,VALID,90.7925,VALID,0,VALID,23.2897,VALID,304,VALID,0.517969,
2011-07-19, 03:42:05,VALID,1000.82,VALID,0,VALID,90.8611,VALID,0.112286,VALID,23.2719,VALID,304,VALID,0.552734,
2011-07-19, 03:43:05,VALID,1000.8,VALID,0,VALID,90.884,VALID,0.112286,VALID,23.2507,VALID,304,VALID,0.376563,
2011-07-19, 03:44:05,VALID,1000.82,VALID,0,VALID,90.8611,VALID,0,VALID,23.2117,VALID,304,VALID,0.2625,
2011-07-19, 03:45:05,VALID,1000.83,VALID,0,VALID,90.8611,VALID,0,VALID,23.2329,VALID,304,VALID,0.154687,
2011-07-19, 03:46:05,VALID,1000.85,VALID,0,VALID,90.8917,VALID,0,VALID,23.1921,VALID,304,VALID,0,